2016-024B

Last updated on Mon Apr 11 2016 17:35:57 GMT+0000 (Coordinated Universal Time)

1 41453U 16024B 16102.29379685 .03963784 11744-4 26959-2 0 9993 2 41453 51.6678 31.0737 0071920 57.1259 303.6724 16.10001893 397

Satellite not in orbit

2016-024B